Moose Lake, MN

10:59 PM CDT on October 13, 2019 (GMT -0500)
Moose Lake-Carlton County

Weather History for KMZH - September, 2019

Change the Weather History Date:

Monday, September 16, 2019

  Actual Average Record
Temperature  
Mean Temperature 66 °F -  
Max Temperature 82 °F 68 °F 92 °F (1948)
Min Temperature 50 °F 42 °F 28 °F (2011)
Cooling Degree Days 1    
Growing Degree Days 16 (Base 50)    
Moisture  
Dew Point 57 °F    
Average Humidity 78    
Maximum Humidity 100    
Minimum Humidity 45    
Precipitation  
Precipitation 0.00 in - - ()
Sea Level Pressure  
Sea Level Pressure 30.00 in    
Wind  
Wind Speed 1 mph (SE)    
Max Wind Speed 9 mph    
Max Gust Speed -    
Visibility 8 miles    
Events Fog    
Averages and records for this station are not official NWS values.
T = Trace of Precipitation, MM = Missing Value Source: NWS Daily Summary

Daily Weather History Graph

Daily Weather History Graph

Search for Another Location

Airport or City:

Astronomy

Sep. 16, 2019 Rise Set
Actual Time 6:50 AM CDT 7:21 PM CDT
Civil Twilight 6:19 AM CDT 7:51 PM CDT
Nautical Twilight 5:44 AM CDT 8:27 PM CDT
Astronomical Twilight 5:06 AM CDT 9:04 PM CDT
Moon 8:49 PM CDT (9/16) 9:02 AM CDT (9/16)
Length of Visible Light 13h 31m
Length of Day
12h 30m
Waning Gibbous, 94% of the Moon is Illuminated
Sep 16
Waning Gibbous
Sep 21
Last Quarter
Sep 28
New
Oct 5
First Quarter
Oct 13
Full

Hourly Weather History & Observations

Time (CDT) Temp. Heat Index Dew Point Humidity Pressure Visibility Wind Dir Wind Speed Gust Speed Precip Events Conditions
12:15 AM 57.2 °F - 55.4 °F 94% 30.00 in 5.0 mi Calm Calm - N/A   Clear
12:16 AM 57.2 °F - 55.4 °F 94% 30.00 in 5.0 mi Calm Calm - N/A   Clear
12:35 AM 55.4 °F - 55.4 °F 100% 30.00 in 7.0 mi Calm Calm - N/A   Clear
12:57 AM 55.4 °F - 53.6 °F 94% 30.00 in 7.0 mi Calm Calm - N/A   Clear
1:16 AM 55.4 °F - 53.6 °F 94% 30.01 in 7.0 mi Calm Calm - N/A   Clear
1:35 AM 55.4 °F - 53.6 °F 94% 30.01 in 1.2 mi Calm Calm - N/A   Mostly Cloudy
1:36 AM 55.4 °F - 53.6 °F 94% 30.01 in 1.2 mi Calm Calm - N/A   Mostly Cloudy
1:55 AM 53.6 °F - 53.6 °F 100% 30.01 in 1.2 mi Calm Calm - N/A   Overcast
2:18 AM 53.6 °F - 51.8 °F 94% 30.02 in 3.0 mi Calm Calm - N/A   Overcast
2:55 AM 53.6 °F - 51.8 °F 94% 30.02 in 1.2 mi Calm Calm - N/A   Overcast
2:56 AM 53.6 °F - 51.8 °F 94% 30.02 in 1.0 mi Calm Calm - N/A   Overcast
3:15 AM 53.6 °F - 51.8 °F 94% 30.02 in 0.8 mi Calm Calm - N/A   Overcast
3:16 AM 53.6 °F - 51.8 °F 94% 30.02 in 0.8 mi Calm Calm - N/A   Overcast
3:35 AM 51.8 °F - 51.8 °F 100% 30.02 in 0.8 mi Calm Calm - N/A   Overcast
3:39 AM 51.8 °F - 51.8 °F 100% 30.02 in 0.8 mi Calm Calm - N/A   Overcast
3:57 AM 51.8 °F - 51.8 °F 100% 30.03 in 0.8 mi Calm Calm - N/A   Overcast
4:15 AM 51.8 °F - 50.0 °F 94% 30.03 in 0.8 mi Calm Calm - N/A   Overcast
4:36 AM 51.8 °F - 50.0 °F 94% 30.03 in 0.8 mi Calm Calm - N/A   Overcast
4:55 AM 51.8 °F - 50.0 °F 94% 30.02 in 0.8 mi Calm Calm - N/A   Overcast
5:19 AM 50.0 °F - 50.0 °F 100% 30.03 in 1.0 mi Calm Calm - N/A   Overcast
5:36 AM 50.0 °F - 50.0 °F 100% 30.02 in 1.8 mi Calm Calm - N/A   Overcast
5:55 AM 50.0 °F - 48.2 °F 94% 30.03 in 7.0 mi Calm Calm - N/A   Scattered Clouds
6:15 AM 50.0 °F - 48.2 °F 94% 30.03 in 5.0 mi NE 3.5 mph - N/A   Scattered Clouds
6:16 AM 50.0 °F - 48.2 °F 94% 30.03 in 5.0 mi Calm Calm - N/A   Scattered Clouds
6:35 AM 50.0 °F - 48.2 °F 94% 30.04 in 0.8 mi Calm Calm - N/A   Overcast
6:58 AM 50.0 °F - 48.2 °F 94% 30.03 in 0.5 mi Calm Calm - N/A Fog Fog
7:15 AM 50.0 °F - 48.2 °F 94% 30.04 in 7.0 mi NE 3.5 mph - N/A   Scattered Clouds
7:35 AM 50.0 °F - 48.2 °F 94% 30.04 in 2.5 mi Calm Calm - N/A   Clear
7:36 AM 50.0 °F - 48.2 °F 94% 30.04 in 3.0 mi NE 3.5 mph - N/A   Clear
7:55 AM 50.0 °F - 50.0 °F 100% 30.04 in 4.0 mi Calm Calm - N/A   Scattered Clouds
7:56 AM 50.0 °F - 50.0 °F 100% 30.04 in 4.0 mi Calm Calm - N/A   Scattered Clouds
8:18 AM 51.8 °F - 51.8 °F 100% 30.04 in 10.0 mi Calm Calm - N/A   Scattered Clouds
8:37 AM 53.6 °F - 53.6 °F 100% 30.04 in 10.0 mi Calm Calm - N/A   Clear
8:56 AM 55.4 °F - 53.6 °F 94% 30.04 in 10.0 mi Calm Calm - N/A   Clear
9:15 AM 57.2 °F - 55.4 °F 94% 30.03 in 10.0 mi Calm Calm - N/A   Clear
9:35 AM 59.0 °F - 59.0 °F 100% 30.03 in 10.0 mi Calm Calm - N/A   Clear
9:40 AM 60.8 °F - 59.0 °F 94% 30.03 in 10.0 mi Calm Calm - N/A   Clear
9:57 AM 62.6 °F - 59.0 °F 88% 30.03 in 10.0 mi Calm Calm - N/A   Clear
10:16 AM 66.2 °F - 59.0 °F 78% 30.03 in 10.0 mi Calm Calm - N/A   Clear
10:35 AM 68.0 °F - 60.8 °F 78% 30.03 in 10.0 mi Calm Calm - N/A   Clear
10:36 AM 68.0 °F - 60.8 °F 78% 30.03 in 10.0 mi Calm Calm - N/A   Clear
10:55 AM 71.6 °F - 62.6 °F 73% 30.02 in 10.0 mi Calm Calm - N/A   Clear
10:56 AM 71.6 °F - 62.6 °F 73% 30.02 in 10.0 mi Calm Calm - N/A   Clear
11:18 AM 75.2 °F - 60.8 °F 61% 30.02 in 10.0 mi South 4.6 mph - N/A   Clear
11:36 AM 77.0 °F - 60.8 °F 57% 30.02 in 10.0 mi South 5.8 mph - N/A   Clear
11:55 AM 77.0 °F - 59.0 °F 54% 30.02 in 10.0 mi SSW 5.8 mph - N/A   Clear
12:15 PM 78.8 °F - 60.8 °F 54% 30.01 in 10.0 mi South 5.8 mph - N/A   Clear
12:16 PM 78.8 °F - 60.8 °F 54% 30.01 in 10.0 mi South 6.9 mph - N/A   Clear
12:35 PM 78.8 °F - 60.8 °F 54% 30.01 in 10.0 mi South 4.6 mph - N/A   Clear
12:39 PM 78.8 °F - 60.8 °F 54% 30.01 in 10.0 mi South 4.6 mph - N/A   Clear
12:58 PM 80.6 °F 81.5 °F 60.8 °F 51% 30.00 in 10.0 mi SSE 8.1 mph - N/A   Clear
1:16 PM 80.6 °F 81.5 °F 60.8 °F 51% 29.99 in 10.0 mi South 5.8 mph - N/A   Clear
1:35 PM 80.6 °F 81.5 °F 60.8 °F 51% 29.99 in 10.0 mi South 8.1 mph - N/A   Clear
1:36 PM 80.6 °F 81.1 °F 59.0 °F 48% 29.99 in 10.0 mi South 9.2 mph - N/A   Clear
1:55 PM 80.6 °F 81.1 °F 59.0 °F 48% 29.99 in 10.0 mi South 3.5 mph - N/A   Clear
2:15 PM 80.6 °F 81.5 °F 60.8 °F 51% 29.99 in 10.0 mi South 5.8 mph - N/A   Clear
2:35 PM 82.4 °F 82.9 °F 60.8 °F 48% 29.98 in 10.0 mi SSE 4.6 mph - N/A   Clear
2:36 PM 82.4 °F 82.5 °F 59.0 °F 45% 29.98 in 10.0 mi South 5.8 mph - N/A   Clear
2:58 PM 82.4 °F 82.9 °F 60.8 °F 48% 29.98 in 10.0 mi SSE 5.8 mph - N/A   Clear
3:17 PM 82.4 °F 82.9 °F 60.8 °F 48% 29.97 in 10.0 mi South 5.8 mph - N/A   Clear
3:36 PM 82.4 °F 82.5 °F 59.0 °F 45% 29.97 in 10.0 mi South 8.1 mph - N/A   Clear
3:55 PM 82.4 °F 82.5 °F 59.0 °F 45% 29.97 in 10.0 mi South 4.6 mph - N/A   Clear
4:15 PM 80.6 °F 81.5 °F 60.8 °F 51% 29.97 in 10.0 mi South 4.6 mph - N/A   Clear
4:20 PM 80.6 °F 81.5 °F 60.8 °F 51% 29.97 in 10.0 mi South 5.8 mph - N/A   Clear
4:35 PM 80.6 °F 81.5 °F 60.8 °F 51% 29.96 in 10.0 mi South 5.8 mph - N/A   Clear
4:55 PM 80.6 °F 81.5 °F 60.8 °F 51% 29.96 in 10.0 mi South 4.6 mph - N/A   Clear
4:56 PM 78.8 °F - 60.8 °F 54% 29.96 in 10.0 mi South 4.6 mph - N/A   Clear
5:15 PM 80.6 °F 81.5 °F 60.8 °F 51% 29.96 in 10.0 mi South 4.6 mph - N/A   Clear
5:20 PM 80.6 °F 81.5 °F 60.8 °F 51% 29.96 in 10.0 mi SSE 4.6 mph - N/A   Clear
5:37 PM 80.6 °F 81.5 °F 60.8 °F 51% 29.96 in 10.0 mi SE 4.6 mph - N/A   Clear
5:56 PM 78.8 °F - 62.6 °F 57% 29.96 in 10.0 mi South 4.6 mph - N/A   Clear
6:15 PM 77.0 °F - 62.6 °F 61% 29.96 in 10.0 mi Calm Calm - N/A   Clear
6:16 PM 77.0 °F - 62.6 °F 61% 29.96 in 10.0 mi Calm Calm - N/A   Clear
6:35 PM 75.2 °F - 62.6 °F 65% 29.96 in 10.0 mi Calm Calm - N/A   Clear
6:36 PM 73.4 °F - 62.6 °F 69% 29.96 in 10.0 mi Calm Calm - N/A   Clear
6:58 PM 73.4 °F - 62.6 °F 69% 29.96 in 10.0 mi Calm Calm - N/A   Clear
7:17 PM 71.6 °F - 62.6 °F 73% 29.96 in 10.0 mi Calm Calm - N/A   Clear
7:35 PM 71.6 °F - 62.6 °F 73% 29.96 in 10.0 mi Calm Calm - N/A   Clear
7:36 PM 71.6 °F - 62.6 °F 73% 29.96 in 10.0 mi Calm Calm - N/A   Clear
7:55 PM 71.6 °F - 62.6 °F 73% 29.96 in 10.0 mi Calm Calm - N/A   Clear
7:56 PM 71.6 °F - 62.6 °F 73% 29.96 in 10.0 mi Calm Calm - N/A   Clear
8:15 PM 68.0 °F - 62.6 °F 83% 29.96 in 10.0 mi Calm Calm - N/A   Clear
8:19 PM 68.0 °F - 62.6 °F 83% 29.96 in 10.0 mi Calm Calm - N/A   Clear
8:37 PM 64.4 °F - 60.8 °F 88% 29.96 in 10.0 mi NE 4.6 mph - N/A   Scattered Clouds
8:55 PM 62.6 °F - 60.8 °F 94% 29.97 in 10.0 mi NE 4.6 mph - N/A   Scattered Clouds
9:15 PM 60.8 °F - 57.2 °F 88% 29.97 in 10.0 mi NE 3.5 mph - N/A   Clear
9:35 PM 59.0 °F - 55.4 °F 88% 29.97 in 10.0 mi NNE 3.5 mph - N/A   Clear
9:36 PM 59.0 °F - 55.4 °F 88% 29.97 in 10.0 mi NNE 3.5 mph - N/A   Clear
9:59 PM 59.0 °F - 55.4 °F 88% 29.97 in 10.0 mi NNE 4.6 mph - N/A   Clear
10:16 PM 57.2 °F - 55.4 °F 94% 29.98 in 10.0 mi NNE 4.6 mph - N/A   Clear
10:35 PM 57.2 °F - 53.6 °F 88% 29.98 in 10.0 mi NE 3.5 mph - N/A   Clear
10:55 PM 55.4 °F - 53.6 °F 94% 29.98 in 10.0 mi NE 3.5 mph - N/A   Clear
10:56 PM 55.4 °F - 53.6 °F 94% 29.98 in 10.0 mi NE 3.5 mph - N/A   Clear
11:15 PM 55.4 °F - 53.6 °F 94% 29.98 in 10.0 mi NE 3.5 mph - N/A   Clear
11:37 PM 55.4 °F - 53.6 °F 94% 29.98 in 10.0 mi NE 3.5 mph - N/A   Clear
11:55 PM 55.4 °F - 51.8 °F 88% 29.98 in 10.0 mi NE 3.5 mph - N/A   Clear